This is the latest recevied weather packets stored in our database for station/object EB2GLU-13. If no packets are shown the sender has not sent any weather packets the latest 10 day(s).
| Time | Temp. | Humidity | Pressure | Rain* | Wind** | Luminosity | Snow |
|---|---|---|---|---|---|---|---|
| 1777784235 | 12.22° C | 93% | 1012.6 hPa | 0 mm | - | - | - |
| 1777783485 | 12.78° C | 93% | 1012.4 hPa | 0 mm | - | - | - |
| 1777782735 | 12.78° C | 92% | 1012.4 hPa | 0 mm | - | - | - |
| 1777780485 | 13.33° C | 91% | 1012.5 hPa | 0 mm | - | - | - |
| 1777779734 | 13.33° C | 90% | 1012.5 hPa | 0 mm | - | - | - |
| 1777778984 | 13.89° C | 89% | 1012.4 hPa | 0 mm | - | - | - |
| 1777778235 | 14.44° C | 86% | 1012.4 hPa | 0 mm | - | - | - |
| 1777777484 | 14.44° C | 87% | 1012.3 hPa | 0 mm | - | - | - |
| 1777776734 | 13.33° C | 92% | 1012.7 hPa | 0 mm | - | - | - |
| 1777775984 | 13.33° C | 93% | 1012.8 hPa | 0 mm | - | - | - |
| 1777775234 | 13.33° C | 93% | 1012.8 hPa | 0 mm | - | - | - |
| 1777774484 | 13.33° C | 93% | 1013.1 hPa | 0 mm | - | - | - |
| 1777773734 | 13.33° C | 93% | 1013.1 hPa | 0 mm | - | - | - |
| 1777772984 | 13.33° C | 93% | 1013.2 hPa | 0 mm | - | - | - |
| 1777772234 | 13.33° C | 93% | 1013.2 hPa | 0 mm | - | - | - |
| 1777771484 | 13.33° C | 94% | 1013 hPa | 0 mm | - | - | - |
| 1777770734 | 13.33° C | 94% | 1013.2 hPa | 0 mm | - | - | - |
| 1777769985 | 13.33° C | 94% | 1013.3 hPa | 0 mm | - | - | - |
| 1777769234 | 13.33° C | 94% | 1013.4 hPa | 0 mm | - | - | - |
| 1777768484 | 13.33° C | 94% | 1013.8 hPa | 0 mm | - | - | - |
| 1777767734 | 13.89° C | 94% | 1013.8 hPa | 0 mm | - | - | - |
| 1777766984 | 13.89° C | 93% | 1013.7 hPa | 0 mm | - | - | - |
| 1777766235 | 13.89° C | 93% | 1013.8 hPa | 0 mm | - | - | - |
| 1777765484 | 14.44° C | 93% | 1013.8 hPa | 0 mm | - | - | - |
| 1777764734 | 14.44° C | 93% | 1014 hPa | 0 mm | - | - | - |
* Rain latest hour (hover to see other rain measurements)
** Current wind speed in m/s (hover to see current wind gust speed)